Location: Alvis C Story Elementary School
(33.0968°N, 96.6364°W)
Time: 19:40:22
(UTC+00:00)

Cosmos 1602 - Pass Details

Date: 08 July 2022
Orbit: 508 x 526 km, 82.5° (Epoch: 17 August)

Event Time Altitude Azimuth Distance (km) Brightness Sun altitude
Exits shadow 09:03:45 25° 319° (NW) 1,056 5.3 -23.7°
Drops below altitude 10° 09:05:52 10° 345° (NNW) 1,732 6.8 -23.4°
Sets 09:08:10 0° 356° (N) 2,624 8.0 -23.1°
